| time (UTC) | temp C | wind direction | speed KPH | gust KPH | rain 1hr cm | rain 24hr cm | rain mn cm | humidity % | barometer mb |
| 20260506045016 | 11 | 0.0 | 0.0 | 0.00 | 0.15 | 0.00 | 85 | 1006.7 | |
| 20260506044015 | 11 | 0.0 | 0.0 | 0.00 | 0.15 | 0.00 | 84 | 1006.8 | |
| 20260506043056 | 11 | 0.0 | 0.0 | 0.00 | 0.15 | 0.00 | 84 | 1006.8 | |
| 20260506042036 | 11 | 0.0 | 0.0 | 0.00 | 0.15 | 0.00 | 83 | 1006.8 | |
| 20260506041036 | 11 | 0.0 | 0.0 | 0.00 | 0.15 | 0.00 | 82 | 1006.9 | |
| 20260506040015 | 12 | 0.0 | 0.0 | 0.00 | 0.15 | 0.00 | 82 | 1007.0 | |
| 20260506035016 | 12 | 0.0 | 0.0 | 0.00 | 0.15 | 0.00 | 81 | 1007.2 | |
| 20260506034036 | 12 | 0.0 | 0.0 | 0.00 | 0.15 | 0.00 | 80 | 1007.0 | |
| 20260506033059 | 12 | 0.0 | 0.0 | 0.00 | 0.15 | 0.00 | 80 | 1007.1 | |
| 20260506032036 | 12 | 0.0 | 0.0 | 0.00 | 0.15 | 0.00 | 79 | 1007.1 | |
| 20260506031119 | 12 | 0.0 | 0.0 | 0.00 | 0.15 | 0.00 | 79 | 1007.0 | |
| 20260506030035 | 12 | 0.0 | 0.0 | 0.00 | 0.15 | 0.00 | 79 | 1007.2 | |
| 20260506025015 | 12 | 0.0 | 0.0 | 0.00 | 0.15 | 0.00 | 78 | 1007.4 | |
| 20260506024138 | 12 | 0.0 | 0.0 | 0.00 | 0.15 | 0.00 | 78 | 1007.6 | |
| 20260506023015 | 12 | 0.0 | 0.0 | 0.00 | 0.15 | 0.00 | 77 | 1007.8 | |
| 20260506022015 | 12 | 0.0 | 0.0 | 0.00 | 0.15 | 0.00 | 76 | 1008.0 | |
| 20260506021015 | 13 | 0.0 | 0.0 | 0.00 | 0.15 | 0.00 | 77 | 1007.9 | |
| 20260506020015 | 13 | 0.0 | 0.0 | 0.00 | 0.15 | 0.00 | 76 | 1008.2 | |
| 20260506015017 | 13 | 0.0 | 0.0 | 0.00 | 0.15 | 0.00 | 75 | 1008.3 | |
| 20260506014015 | 13 | 0.0 | 0.0 | 0.00 | 0.15 | 0.00 | 74 | 1008.4 | |
| 20260506013035 | 12 | 0.0 | 0.0 | 0.00 | 0.15 | 0.00 | 75 | 1008.3 | |
| 20260506012035 | 12 | 0.0 | 0.0 | 0.00 | 0.15 | 0.00 | 77 | 1008.3 | |
| 20260506011036 | 12 | 0.0 | 0.0 | 0.00 | 0.15 | 0.00 | 76 | 1008.3 | |
| 20260506010035 | 12 | 0.0 | 0.0 | 0.00 | 0.15 | 0.00 | 76 | 1008.2 | |
| 20260506005015 | 12 | 0.0 | 0.0 | 0.00 | 0.15 | 0.00 | 79 | 1008.2 | |
| 20260506004159 | 12 | 0.0 | 0.0 | 0.00 | 0.15 | 0.00 | 80 | 1008.1 | |
| 20260506003015 | 12 | 0.0 | 0.0 | 0.00 | 0.15 | 0.00 | 77 | 1008.1 | |
| 20260506002015 | 12 | 0.0 | 0.0 | 0.00 | 0.15 | 0.00 | 77 | 1008.5 | |
| 20260506001015 | 12 | 0.0 | 0.0 | 0.00 | 0.15 | 0.00 | 76 | 1008.4 | |
| 20260506000015 | 13 | 0.0 | 0.0 | 0.00 | 0.15 | 0.15 | 76 | 1008.7 | |
| 20260505235057 | 12 | 0.0 | 0.0 | 0.00 | 0.15 | 0.15 | 78 | 1008.8 | |
| 20260505234016 | 12 | 0.0 | 0.0 | 0.00 | 0.15 | 0.15 | 83 | 1008.7 | |
| 20260505233016 | 12 | 0.0 | 0.0 | 0.00 | 0.15 | 0.15 | 82 | 1008.8 | |
| 20260505232036 | 12 | 0.0 | 0.0 | 0.00 | 0.15 | 0.15 | 81 | 1008.8 | |
| 20260505231016 | 12 | 0.0 | 0.0 | 0.00 | 0.15 | 0.15 | 80 | 1008.9 | |
| 20260505230016 | 12 | 0.0 | 0.0 | 0.00 | 0.15 | 0.15 | 83 | 1008.9 | |
| 20260505225016 | 12 | 0.0 | 0.0 | 0.00 | 0.15 | 0.15 | 82 | 1009.0 | |
| 20260505224056 | 12 | 0.0 | 0.0 | 0.00 | 0.15 | 0.15 | 82 | 1009.1 | |
| 20260505223036 | 12 | 0.0 | 0.0 | 0.00 | 0.15 | 0.15 | 83 | 1009.1 | |
| 20260505222016 | 12 | 0.0 | 0.0 | 0.00 | 0.15 | 0.15 | 83 | 1009.1 | |
| 20260505221016 | 12 | 0.0 | 0.0 | 0.00 | 0.15 | 0.15 | 83 | 1009.1 | |
| 20260505220119 | 12 | 0.0 | 0.0 | 0.00 | 0.15 | 0.15 | 82 | 1009.0 | |
| 20260505215016 | 12 | 0.0 | 0.0 | 0.00 | 0.15 | 0.15 | 82 | 1009.1 | |
| 20260505214016 | 12 | 0.0 | 0.0 | 0.00 | 0.15 | 0.15 | 84 | 1009.1 | |
| 20260505213056 | 12 | 0.0 | 0.0 | 0.00 | 0.15 | 0.15 | 84 | 1009.1 | |
| 20260505212016 | 12 | 0.0 | 0.0 | 0.00 | 0.15 | 0.15 | 85 | 1009.1 | |
| 20260505211120 | 12 | 0.0 | 0.0 | 0.00 | 0.15 | 0.15 | 85 | 1009.2 | |
| 20260505210016 | 12 | 0.0 | 0.0 | 0.00 | 0.15 | 0.15 | 84 | 1009.2 | |
| 20260505205036 | 13 | 0.0 | 0.0 | 0.00 | 0.15 | 0.15 | 84 | 1009.4 | |
| 20260505204016 | 13 | 0.0 | 0.0 | 0.00 | 0.15 | 0.15 | 85 | 1009.5 | |
| 20260505203056 | 13 | 0.0 | 0.0 | 0.00 | 0.18 | 0.15 | 85 | 1009.5 | |
| 20260505202016 | 13 | 0.0 | 0.0 | 0.00 | 0.18 | 0.15 | 85 | 1009.2 | |
| 20260505201059 | 13 | 0.0 | 0.0 | 0.00 | 0.18 | 0.15 | 85 | 1009.2 | |
| 20260505200039 | 13 | 0.0 | 0.0 | 0.00 | 0.18 | 0.15 | 84 | 1009.1 | |
| 20260505195039 | 12 | 0.0 | 0.0 | 0.00 | 0.18 | 0.15 | 87 | 1008.9 | |
| 20260505194019 | 12 | 0.0 | 0.0 | 0.00 | 0.18 | 0.15 | 87 | 1008.8 | |
| 20260505193039 | 12 | 0.0 | 0.0 | 0.00 | 0.18 | 0.15 | 87 | 1008.7 | |
| 20260505192016 | 12 | 0.0 | 0.0 | 0.00 | 0.18 | 0.15 | 86 | 1008.6 | |
| 20260505191016 | 12 | 0.0 | 0.0 | 0.00 | 0.18 | 0.15 | 86 | 1008.5 | |
| 20260505190016 | 13 | 0.0 | 0.0 | 0.03 | 0.18 | 0.15 | 85 | 1008.4 | |
| 20260505185016 | 13 | 0.0 | 0.0 | 0.03 | 0.18 | 0.15 | 84 | 1008.3 | |
| 20260505184016 | 13 | 0.0 | 0.0 | 0.03 | 0.18 | 0.15 | 85 | 1008.1 | |
| 20260505183016 | 13 | 0.0 | 0.0 | 0.03 | 0.18 | 0.15 | 86 | 1008.2 | |
| 20260505182036 | 13 | 0.0 | 0.0 | 0.03 | 0.18 | 0.15 | 85 | 1008.2 | |
| 20260505181018 | 14 | 0.0 | 0.0 | 0.03 | 0.18 | 0.15 | 83 | 1008.5 | |
| 20260505180016 | 15 | 0.0 | 0.0 | 0.00 | 0.15 | 0.15 | 81 | 1008.5 | |
| 20260505175056 | 15 | 0.0 | 0.0 | 0.00 | 0.15 | 0.15 | 79 | 1008.1 | |
| 20260505174016 | 15 | 0.0 | 0.0 | 0.00 | 0.15 | 0.15 | 79 | 1008.1 | |
| 20260505173016 | 15 | 0.0 | 0.0 | 0.00 | 0.18 | 0.15 | 81 | 1008.0 | |
| 20260505172017 | 15 | 0.0 | 0.0 | 0.00 | 0.18 | 0.15 | 80 | 1008.2 | |
| 20260505171016 | 15 | 0.0 | 0.0 | 0.00 | 0.18 | 0.15 | 78 | 1008.1 | |
| 20260505170036 | 15 | 0.0 | 0.0 | 0.00 | 0.18 | 0.15 | 78 | 1007.9 | |
| 20260505165016 | 15 | 0.0 | 0.0 | 0.00 | 0.18 | 0.15 | 79 | 1008.1 | |
| 20260505164036 | 15 | 0.0 | 0.0 | 0.00 | 0.18 | 0.15 | 80 | 1008.0 | |
| 20260505163016 | 15 | 0.0 | 0.0 | 0.00 | 0.20 | 0.15 | 78 | 1008.0 | |
| 20260505162116 | 15 | 0.0 | 0.0 | 0.00 | 0.20 | 0.15 | 78 | 1008.0 | |
| 20260505161016 | 15 | 0.0 | 0.0 | 0.00 | 0.20 | 0.15 | 80 | 1007.9 | |
| 20260505153016 | 13 | 0.0 | 0.0 | 0.05 | 0.20 | 0.15 | 88 | 1008.1 | |
| 20260505152017 | 13 | 0.0 | 0.0 | 0.08 | 0.20 | 0.15 | 88 | 1007.9 | |
| 20260505151015 | 13 | 0.0 | 0.0 | 0.10 | 0.20 | 0.15 | 87 | 1007.8 | |
| 20260505125036 | 15 | 0.0 | 0.0 | 0.00 | 0.10 | 0.05 | 87 | 1008.3 | |
| 20260505124018 | 15 | 0.0 | 0.0 | 0.03 | 0.10 | 0.05 | 87 | 1008.2 | |
| 20260505123016 | 15 | 0.0 | 0.0 | 0.03 | 0.10 | 0.05 | 88 | 1008.4 | |
| 20260505122055 | 15 | 0.0 | 0.0 | 0.03 | 0.10 | 0.05 | 88 | 1008.5 | |
| 20260505121016 | 15 | 0.0 | 0.0 | 0.05 | 0.10 | 0.05 | 87 | 1008.5 | |
| 20260505120015 | 15 | 0.0 | 0.0 | 0.05 | 0.10 | 0.05 | 87 | 1008.6 | |
| 20260505115015 | 15 | 0.0 | 0.0 | 0.05 | 0.10 | 0.05 | 86 | 1008.5 | |
| 20260505114015 | 15 | 0.0 | 0.0 | 0.03 | 0.08 | 0.03 | 86 | 1008.7 | |
| 20260505113015 | 15 | 0.0 | 0.0 | 0.03 | 0.08 | 0.03 | 86 | 1008.8 | |
| 20260505112015 | 15 | 0.0 | 0.0 | 0.03 | 0.08 | 0.03 | 86 | 1008.9 | |
| 20260505111015 | 15 | 0.0 | 0.0 | 0.00 | 0.05 | 0.00 | 86 | 1008.9 | |
| 20260505102037 | 14 | 0.0 | 0.0 | 0.00 | 0.05 | 0.00 | 86 | 1008.9 | |
| 20260505101037 | 14 | 0.0 | 0.0 | 0.00 | 0.05 | 0.00 | 86 | 1009.0 | |
| 20260505100017 | 14 | 0.0 | 0.0 | 0.00 | 0.05 | 0.00 | 86 | 1008.9 | |
| 20260505095057 | 14 | 0.0 | 0.0 | 0.00 | 0.05 | 0.00 | 86 | 1008.9 | |
| 20260505094058 | 14 | 0.0 | 0.0 | 0.00 | 0.05 | 0.00 | 86 | 1008.8 | |
| 20260505093017 | 14 | 0.0 | 0.0 | 0.00 | 0.05 | 0.00 | 85 | 1008.8 | |
| 20260505092057 | 14 | 0.0 | 0.0 | 0.00 | 0.05 | 0.00 | 85 | 1008.9 | |
| 20260505091017 | 14 | 0.0 | 0.0 | 0.00 | 0.05 | 0.00 | 85 | 1009.1 | |
| 20260505085017 | 14 | 0.0 | 0.0 | 0.00 | 0.05 | 0.00 | 83 | 1009.2 | |
| 20260505084057 | 14 | 0.0 | 0.0 | 0.00 | 0.05 | 0.00 | 83 | 1009.3 | |
| 20260505083037 | 14 | 0.0 | 0.0 | 0.00 | 0.05 | 0.00 | 84 | 1009.4 | |
| 20260505082037 | 14 | 0.0 | 0.0 | 0.00 | 0.05 | 0.00 | 85 | 1009.4 | |
| 20260505081037 | 13 | 0.0 | 0.0 | 0.00 | 0.05 | 0.00 | 86 | 1009.4 | |
| 20260505080017 | 13 | 0.0 | 0.0 | 0.00 | 0.05 | 0.00 | 88 | 1009.5 | |
| 20260505075017 | 13 | 0.0 | 0.0 | 0.00 | 0.05 | 0.00 | 89 | 1009.5 | |
| 20260505074057 | 13 | 0.0 | 0.0 | 0.00 | 0.05 | 0.00 | 90 | 1009.5 | |
| 20260505073037 | 13 | 0.0 | 0.0 | 0.00 | 0.05 | 0.00 | 90 | 1009.7 | |
| 20260505072037 | 13 | 0.0 | 0.0 | 0.00 | 0.05 | 0.00 | 90 | 1009.5 | |
| 20260505071017 | 12 | 0.0 | 0.0 | 0.00 | 0.05 | 0.00 | 91 | 1009.5 | |
| 20260505070017 | 12 | 0.0 | 0.0 | 0.00 | 0.05 | 0.00 | 91 | 1009.7 | |
| 20260505065100 | 12 | 0.0 | 0.0 | 0.00 | 0.05 | 0.00 | 91 | 1009.7 | |
| 20260505064017 | 12 | 0.0 | 0.0 | 0.00 | 0.05 | 0.00 | 91 | 1009.8 | |
| 20260505063017 | 12 | 0.0 | 0.0 | 0.00 | 0.05 | 0.00 | 91 | 1009.7 | |
| 20260505062040 | 12 | 0.0 | 0.0 | 0.00 | 0.05 | 0.00 | 91 | 1009.9 | |
| 20260505061017 | 12 | 0.0 | 0.0 | 0.00 | 0.05 | 0.00 | 90 | 1010.0 | |
| 20260505060016 | 12 | 0.0 | 0.0 | 0.00 | 0.05 | 0.00 | 90 | 1010.0 | |
| 20260505055057 | 12 | 0.0 | 0.0 | 0.00 | 0.05 | 0.00 | 89 | 1010.0 | |
| 20260505054017 | 12 | 0.0 | 0.0 | 0.00 | 0.05 | 0.00 | 89 | 1010.0 | |
| 20260505053017 | 12 | 0.0 | 0.0 | 0.00 | 0.05 | 0.00 | 89 | 1010.0 | |
| 20260505052017 | 12 | 0.0 | 0.0 | 0.00 | 0.05 | 0.00 | 89 | 1009.9 | |
| 20260505051037 | 12 | 0.0 | 0.0 | 0.00 | 0.05 | 0.00 | 88 | 1009.8 |